When you browse on this site, cookies collect data to enhance your experience and personalize the content and advertising you see.
Visit our Privacy Policy to learn more. By continuing to use the site, you agree to this use of cookies and data.
  • In Hungary
  • List of Countries
  • For 7 days
  • Water Temperature
  • Satellite Maps
  • Weather Map
  • News
  • Weather Widgets
  • user-avatar
    Login

    Hourly Weather Piecuchy

    Today, 14 December, Friday

    Time Temperature Precipitation Wind Pressure Humidity
    00:00 -2°C° 0 mm 2 mps 756 mmHg 81%
    01:00 -2°C° 0 mm 2 mps 756 mmHg 81%
    02:00 -2°C° 0 mm 2 mps 756 mmHg 81%
    03:00 -2°C° 0 mm 2 mps 756 mmHg 82%
    04:00 -2°C° 0 mm 3 mps 756 mmHg 82%
    05:00 -2°C° 0 mm 3 mps 756 mmHg 83%
    06:00 -2°C° 0 mm 3 mps 757 mmHg 83%
    07:00 -2°C° 0 mm 3 mps 757 mmHg 84%
    08:00 -2°C° 0 mm 3 mps 757 mmHg 83%
    09:00 -2°C° 0 mm 3 mps 757 mmHg 82%
    10:00 -2°C° 0 mm 3 mps 757 mmHg 81%
    11:00 -1°C° 0 mm 3 mps 757 mmHg 80%
    12:00 -1°C° 0 mm 3 mps 757 mmHg 79%
    13:00 -1°C° 0 mm 3 mps 758 mmHg 78%
    14:00 -1°C° 0 mm 3 mps 758 mmHg 80%
    15:00 -1°C° 0 mm 2 mps 758 mmHg 82%
    16:00 -1°C° 0 mm 2 mps 758 mmHg 84%
    17:00 -1°C° 0 mm 2 mps 758 mmHg 85%
    18:00 -1°C° 0 mm 2 mps 759 mmHg 86%
    19:00 -2°C° 0 mm 2 mps 759 mmHg 88%
    20:00 -2°C° 0 mm 2 mps 759 mmHg 89%
    21:00 -2°C° 0 mm 2 mps 759 mmHg 90%
    22:00 -2°C° 0 mm 2 mps 759 mmHg 91%
    23:00 -2°C° 0 mm 2 mps 759 mmHg 91%

    Tomorrow, 15 December, Saturday

    Time Temperature Precipitation Wind Pressure Humidity
    00:00 -2°C° 0 mm 2 mps 759 mmHg 91%
    01:00 -2°C° 0 mm 2 mps 760 mmHg 91%
    02:00 -2°C° 0 mm 2 mps 760 mmHg 91%
    03:00 -2°C° 0 mm 2 mps 760 mmHg 91%
    04:00 -2°C° 0 mm 2 mps 760 mmHg 91%
    05:00 -2°C° 0 mm 3 mps 760 mmHg 91%
    06:00 -2°C° 0 mm 3 mps 760 mmHg 91%
    07:00 -2°C° 0 mm 3 mps 760 mmHg 90%
    08:00 -2°C° 0 mm 3 mps 760 mmHg 88%
    09:00 -2°C° 0 mm 3 mps 761 mmHg 85%
    10:00 -1°C° 0 mm 3 mps 761 mmHg 83%
    11:00 -1°C° 0 mm 3 mps 761 mmHg 81%
    12:00 -1°C° 0 mm 3 mps 761 mmHg 80%
    13:00 -1°C° 0 mm 3 mps 761 mmHg 79%
    14:00 -1°C° 0 mm 3 mps 760 mmHg 80%
    15:00 -1°C° 0 mm 3 mps 760 mmHg 82%
    16:00 -2°C° 0 mm 3 mps 760 mmHg 83%
    17:00 -2°C° 0 mm 3 mps 760 mmHg 84%
    18:00 -2°C° 0 mm 3 mps 760 mmHg 84%
    19:00 -2°C° 0 mm 3 mps 760 mmHg 85%
    20:00 -2°C° 0 mm 3 mps 760 mmHg 84%
    21:00 -2°C° 0 mm 3 mps 760 mmHg 84%
    22:00 -2°C° 0 mm 3 mps 760 mmHg 83%
    23:00 -3°C° 0 mm 4 mps 760 mmHg 82%

    Day after tomorrow, 16 December, Sunday

    Time Temperature Precipitation Wind Pressure Humidity
    00:00 -3°C° 0 mm 4 mps 759 mmHg 81%
    01:00 -3°C° 0 mm 4 mps 759 mmHg 80%
    02:00 -3°C° 0 mm 4 mps 759 mmHg 79%
    03:00 -3°C° 0 mm 4 mps 758 mmHg 77%
    04:00 -3°C° 0 mm 4 mps 757 mmHg 76%
    05:00 -4°C° 0.1 mm 5 mps 757 mmHg 78%
    06:00 -4°C° 0.1 mm 5 mps 757 mmHg 80%
    07:00 -4°C° 0.1 mm 5 mps 757 mmHg 81%
    08:00 -4°C° 0.3 mm 5 mps 756 mmHg 82%
    09:00 -4°C° 0.3 mm 6 mps 756 mmHg 82%
    10:00 -4°C° 0.3 mm 6 mps 756 mmHg 83%
    11:00 -4°C° 0.3 mm 6 mps 755 mmHg 84%
    12:00 -4°C° 0.3 mm 6 mps 755 mmHg 85%
    13:00 -4°C° 0.3 mm 5 mps 754 mmHg 86%
    14:00 -4°C° 0.4 mm 5 mps 754 mmHg 87%
    15:00 -4°C° 0.4 mm 5 mps 754 mmHg 88%
    16:00 -4°C° 0.4 mm 5 mps 753 mmHg 89%
    17:00 -4°C° 0.1 mm 5 mps 753 mmHg 90%
    18:00 -4°C° 0.1 mm 5 mps 753 mmHg 90%
    19:00 -4°C° 0.1 mm 5 mps 753 mmHg 90%
    20:00 -3°C° 0 mm 4 mps 753 mmHg 90%
    21:00 -3°C° 0 mm 4 mps 753 mmHg 90%
    22:00 -3°C° 0 mm 4 mps 753 mmHg 90%
    23:00 -3°C° 0 mm 4 mps 753 mmHg 91%

    17 December, Monday

    Time Temperature Precipitation Wind Pressure Humidity
    00:00 -3°C° 0 mm 4 mps 753 mmHg 91%
    01:00 -3°C° 0 mm 4 mps 753 mmHg 92%
    02:00 -3°C° 0 mm 4 mps 752 mmHg 92%
    03:00 -3°C° 0 mm 4 mps 752 mmHg 92%
    04:00 -3°C° 0 mm 4 mps 752 mmHg 92%
    05:00 -3°C° 0 mm 4 mps 752 mmHg 92%
    06:00 -3°C° 0 mm 4 mps 752 mmHg 92%
    07:00 -2°C° 0 mm 3 mps 752 mmHg 93%
    08:00 -3°C° 0 mm 4 mps 752 mmHg 91%
    09:00 -3°C° 0 mm 4 mps 753 mmHg 89%
    10:00 -3°C° 0 mm 4 mps 753 mmHg 88%
    11:00 -3°C° 0 mm 4 mps 753 mmHg 87%
    12:00 -1°C° 0 mm 3 mps 753 mmHg 86%
    13:00 -1°C° 0 mm 3 mps 754 mmHg 86%
    14:00 -1°C° 0 mm 3 mps 754 mmHg 88%
    15:00 -2°C° 0 mm 3 mps 754 mmHg 90%
    16:00 -2°C° 0 mm 2 mps 754 mmHg 93%
    17:00 -2°C° 0 mm 2 mps 755 mmHg 93%
    18:00 -2°C° 0 mm 2 mps 755 mmHg 94%
    19:00 -2°C° 0 mm 2 mps 756 mmHg 94%
    20:00 -2°C° 0 mm 2 mps 756 mmHg 94%
    21:00 -3°C° 0 mm 2 mps 757 mmHg 94%
    22:00 -3°C° 0 mm 2 mps 757 mmHg 94%
    23:00 -3°C° 0 mm 2 mps 757 mmHg 95%

    18 December, Tuesday

    Time Temperature Precipitation Wind Pressure Humidity
    00:00 -3°C° 0 mm 2 mps 758 mmHg 95%
    01:00 -3°C° 0 mm 2 mps 758 mmHg 95%
    02:00 -3°C° 0 mm 2 mps 758 mmHg 95%
    03:00 -1°C° 0 mm 1 mps 758 mmHg 95%
    04:00 -1°C° 0 mm 1 mps 758 mmHg 95%
    05:00 -3°C° 0 mm 2 mps 758 mmHg 95%
    06:00 -3°C° 0 mm 2 mps 758 mmHg 95%
    07:00 -3°C° 0 mm 2 mps 758 mmHg 95%
    08:00 -3°C° 0 mm 2 mps 759 mmHg 94%
    09:00 -2°C° 0 mm 2 mps 759 mmHg 93%
    10:00 -2°C° 0 mm 2 mps 759 mmHg 92%
    11:00 -1°C° 0 mm 2 mps 759 mmHg 91%
    12:00 -1°C° 0 mm 2 mps 759 mmHg 91%
    13:00 -1°C° 0 mm 2 mps 759 mmHg 90%
    14:00 -1°C° 0 mm 2 mps 759 mmHg 92%
    15:00 -2°C° 0 mm 2 mps 759 mmHg 93%
    16:00 -2°C° 0 mm 2 mps 759 mmHg 95%
    17:00 -2°C° 0 mm 2 mps 759 mmHg 95%
    18:00 -4°C° 0 mm 3 mps 759 mmHg 95%
    19:00 -4°C° 0 mm 3 mps 759 mmHg 95%
    20:00 -4°C° 0 mm 3 mps 759 mmHg 95%
    21:00 -4°C° 0 mm 3 mps 759 mmHg 95%
    22:00 -5°C° 0 mm 3 mps 759 mmHg 95%
    23:00 -5°C° 0 mm 3 mps 759 mmHg 95%

    19 December, Wednesday

    Time Temperature Precipitation Wind Pressure Humidity
    00:00 -5°C° 0 mm 3 mps 758 mmHg 95%
    01:00 -5°C° 0 mm 3 mps 758 mmHg 95%
    02:00 -5°C° 0 mm 3 mps 758 mmHg 94%
    03:00 -5°C° 0 mm 4 mps 758 mmHg 94%
    04:00 -5°C° 0 mm 4 mps 757 mmHg 93%
    05:00 -5°C° 0 mm 4 mps 757 mmHg 93%
    06:00 -5°C° 0 mm 4 mps 757 mmHg 93%
    07:00 -5°C° 0 mm 4 mps 757 mmHg 93%
    08:00 -6°C° 0 mm 5 mps 756 mmHg 92%
    09:00 -5°C° 0 mm 5 mps 756 mmHg 92%
    10:00 -5°C° 0 mm 6 mps 756 mmHg 91%
    11:00 -4°C° 0 mm 6 mps 756 mmHg 90%
    12:00 -4°C° 0 mm 6 mps 755 mmHg 89%
    13:00 -4°C° 0 mm 6 mps 755 mmHg 88%
    14:00 -4°C° 0 mm 6 mps 754 mmHg 89%
    15:00 -4°C° 0 mm 6 mps 754 mmHg 90%
    16:00 -4°C° 0 mm 6 mps 754 mmHg 91%
    17:00 -5°C° 0 mm 6 mps 753 mmHg 91%
    18:00 -5°C° 0 mm 5 mps 753 mmHg 91%
    19:00 -5°C° 0 mm 5 mps 753 mmHg 91%
    20:00 -5°C° 0 mm 5 mps 753 mmHg 91%
    21:00 -5°C° 0 mm 5 mps 752 mmHg 91%
    22:00 -5°C° 0 mm 5 mps 752 mmHg 91%
    23:00 -4°C° 0 mm 5 mps 752 mmHg 92%
    Show more